Flag for Switzerland Weather past 2 weeks in Renens, Vaud, Switzerland

Now
31 °F

Chilly.


Feels Like: 26 °F
Forecast: 27 / 38 °F
Wind: 6 mph from Southeast

Location: Aigle

Current Time: Jan 26, 2015 at 7:56:04 PM

Latest Report: Jan 26, 2015 at 7:00 PM


Visibility: N/A

Pressure: 30.34 "Hg

Humidity: 92%

Dew point: 29 °F

Location of RenensLocation

Historic Weather in Renens — Graph

°F

Renens temperature yesterday

Maximum temperature yesterday: 39 °F (at 2:00 PM)
Minimum temperature yesterday: 30 °F (at 11:00 PM)
Average temperature yesterday: 35 °F

Past Weeks' High & Low Weather Summary

 TemperatureHumidityPressure
High51 °F (Jan 16, 4:00 AM)100% (Jan 17, 11:00 PM)30.60 "Hg (Jan 17, 11:00 PM)
Low29 °F (Jan 26, 3:00 AM)36% (Jan 13, 12:00 PM)29.68 "Hg (Jan 16, 3:00 PM)
Average37 °F78%30.09 "Hg
* Reported Jan 11 6:00 PM — Jan 26 6:00 PM, Renens, Weather by CustomWeather, © 2014

Note: Actual official high and low records may vary slightly from our data, if they occured in-between our weather recording intervals... More about our weather records

Advertising

Renens weather history for previous 24 hours

 ConditionsComfort  
Time TempWeatherWind HumidityBarometerVisibility
6:00 PM
Jan 26
31 °FChilly.3 mph95%30.36 "HgN/A
5:00 PM31 °FChilly.3 mph92%30.36 "HgN/A
4:00 PM32 °FLight snow. Low clouds.6 mph85%30.37 "Hg3 mi
3:00 PM33 °FChilly.5 mph73%30.37 "HgN/A
2:00 PM34 °FChilly.6 mph63%30.37 "HgN/A
1:00 PM34 °FOvercast.8 mph63%30.39 "Hg9 mi
12:00 PM33 °FChilly.10 mph61%30.41 "HgN/A
11:00 AM33 °FChilly.9 mph65%30.41 "HgN/A
10:00 AM32 °FOvercast.2 mph70%30.42 "Hg12 mi
9:00 AM31 °FChilly.3 mph73%30.42 "HgN/A
8:00 AM30 °FChilly.3 mph78%30.42 "HgN/A
7:00 AM31 °FOvercast.2 mph73%30.42 "Hg9 mi
6:00 AM30 °FChilly.2 mph75%30.41 "HgN/A
5:00 AM30 °FChilly.3 mph73%30.41 "HgN/A
4:00 AM29 °FFog.2 mph84%30.41 "Hg8 mi
3:00 AM29 °FChilly.5 mph88%30.41 "HgN/A
2:00 AM30 °FChilly.2 mph85%30.41 "HgN/A
1:00 AM30 °FChilly.1 mph88%30.41 "HgN/A
12:00 AM31 °FChilly.2 mph81%30.41 "HgN/A
11:00 PM
Jan 25
30 °FChilly.2 mph83%30.42 "HgN/A
10:00 PM31 °FChilly.1 mph76%30.42 "HgN/A
9:00 PM33 °FChilly.1 mph72%30.42 "HgN/A
8:00 PM35 °FChilly.3 mph65%30.40 "HgN/A
7:00 PM35 °FPassing clouds.5 mph66%30.39 "Hg17 mi
Weather by CustomWeather, © 2014

See weather overviewHow to use our weather pages